| time (UTC) | temp C | wind direction | speed KPH | gust KPH | rain 1hr cm | rain 24hr cm | rain mn cm | humidity % | barometer mb |
| 20260504081514 | 8 | 155 | 0.0 | 0.0 | 0.00 | 0.00 | 0.00 | 57 | 1016.1 |
| 20260504060105 | 6 | 151 | 0.0 | 0.0 | 0.00 | 0.00 | 0.00 | 65 | 1016.5 |
| 20260504044543 | 5 | 151 | 0.0 | 0.0 | 0.00 | 0.00 | 0.00 | 67 | 1016.6 |
| 20260504043043 | 5 | 151 | 0.0 | 0.0 | 0.00 | 0.00 | 0.00 | 67 | 1016.6 |
| 20260504041537 | 5 | 151 | 0.0 | 0.0 | 0.00 | 0.00 | 0.00 | 66 | 1016.5 |
| 20260504040033 | 5 | 152 | 0.0 | 0.0 | 0.00 | 0.00 | 0.00 | 66 | 1016.4 |
| 20260504034533 | 5 | 152 | 0.0 | 0.0 | 0.00 | 0.00 | 0.00 | 66 | 1016.6 |
| 20260504033035 | 5 | 151 | 0.0 | 0.0 | 0.00 | 0.00 | 0.00 | 66 | 1016.6 |
| 20260504031530 | 5 | 151 | 0.0 | 0.0 | 0.00 | 0.00 | 0.00 | 64 | 1016.4 |
| 20260504030029 | 5 | 151 | 0.0 | 0.0 | 0.00 | 0.00 | 0.00 | 62 | 1016.3 |
| 20260504024538 | 6 | 151 | 0.0 | 0.0 | 0.00 | 0.00 | 0.00 | 61 | 1016.2 |
| 20260504023028 | 6 | 152 | 0.0 | 0.0 | 0.00 | 0.00 | 0.00 | 59 | 1016.1 |
| 20260504021528 | 6 | 151 | 0.0 | 0.0 | 0.00 | 0.00 | 0.00 | 58 | 1016.2 |
| 20260504020029 | 7 | 151 | 0.0 | 0.0 | 0.00 | 0.00 | 0.00 | 57 | 1016.0 |
| 20260504014526 | 7 | 151 | 0.0 | 0.0 | 0.00 | 0.00 | 0.00 | 54 | 1015.8 |
| 20260504013035 | 7 | 151 | 0.0 | 0.0 | 0.00 | 0.00 | 0.00 | 52 | 1015.6 |
| 20260504011526 | 8 | 151 | 0.0 | 0.0 | 0.00 | 0.00 | 0.00 | 51 | 1015.5 |
| 20260504010025 | 9 | 151 | 0.0 | 0.0 | 0.00 | 0.00 | 0.00 | 48 | 1015.6 |
| 20260504004525 | 10 | 151 | 0.0 | 0.0 | 0.00 | 0.00 | 0.00 | 43 | 1015.4 |
| 20260504003037 | 11 | 151 | 0.0 | 0.0 | 0.00 | 0.00 | 0.00 | 43 | 1015.3 |
| 20260504001523 | 12 | 151 | 0.0 | 0.0 | 0.00 | 0.00 | 0.00 | 34 | 1015.2 |
| 20260504000023 | 13 | 151 | 0.0 | 0.0 | 0.00 | 0.00 | 0.00 | 27 | 1015.2 |
| 20260503234522 | 14 | 151 | 0.0 | 0.0 | 0.00 | 0.00 | 0.00 | 26 | 1015.0 |
| 20260503233026 | 15 | 151 | 0.0 | 4.8 | 0.00 | 0.00 | 0.00 | 26 | 1014.9 |
| 20260503231520 | 15 | 141 | 0.0 | 3.2 | 0.00 | 0.00 | 0.00 | 21 | 1014.8 |
| 20260503230019 | 15 | 86 | 0.0 | 3.2 | 0.00 | 0.00 | 0.00 | 22 | 1014.7 |
| 20260503224526 | 16 | 98 | 0.0 | 4.8 | 0.00 | 0.00 | 0.00 | 19 | 1014.9 |
| 20260503223017 | 16 | 242 | 0.0 | 4.8 | 0.00 | 0.00 | 0.00 | 19 | 1015.0 |
| 20260503221515 | 17 | 294 | 0.0 | 9.7 | 0.00 | 0.00 | 0.00 | 19 | 1014.9 |
| 20260503220020 | 17 | 198 | 1.6 | 11.3 | 0.00 | 0.00 | 0.00 | 18 | 1014.9 |
| 20260503214514 | 17 | 98 | 0.0 | 9.7 | 0.00 | 0.00 | 0.00 | 16 | 1015.0 |
| 20260503213011 | 17 | 313 | 0.0 | 8.0 | 0.00 | 0.00 | 0.00 | 20 | 1015.0 |
| 20260503211509 | 17 | 316 | 1.6 | 12.9 | 0.00 | 0.00 | 0.00 | 16 | 1015.1 |
| 20260503210009 | 17 | 142 | 0.0 | 6.4 | 0.00 | 0.00 | 0.00 | 17 | 1015.0 |
| 20260503204506 | 17 | 118 | 1.6 | 9.7 | 0.00 | 0.00 | 0.00 | 18 | 1015.2 |
| 20260503203005 | 17 | 295 | 0.0 | 9.7 | 0.00 | 0.00 | 0.00 | 17 | 1015.2 |
| 20260503201504 | 16 | 309 | 1.6 | 11.3 | 0.00 | 0.00 | 0.00 | 20 | 1015.3 |
| 20260503200004 | 16 | 168 | 3.2 | 0.0 | 0.00 | 0.00 | 0.00 | 21 | 1015.6 |
| 20260503194502 | 16 | 188 | 0.0 | 12.9 | 0.00 | 0.00 | 0.00 | 22 | 1015.9 |
| 20260503193002 | 16 | 317 | 0.0 | 25.7 | 0.00 | 0.00 | 0.00 | 22 | 1016.2 |
| 20260503191559 | 16 | 82 | 1.6 | 9.7 | 0.00 | 0.00 | 0.00 | 21 | 1016.5 |
| 20260503184616 | 16 | 143 | 1.6 | 12.9 | 0.00 | 0.00 | 0.00 | 20 | 1016.8 |
| 20260503183101 | 16 | 173 | 1.6 | 8.0 | 0.00 | 0.00 | 0.00 | 20 | 1017.0 |
| 20260503181556 | 16 | 5 | 1.6 | 11.3 | 0.00 | 0.00 | 0.00 | 25 | 1017.0 |
| 20260503180054 | 15 | 129 | 0.0 | 8.0 | 0.00 | 0.00 | 0.00 | 23 | 1017.1 |
| 20260503174551 | 15 | 300 | 3.2 | 11.3 | 0.00 | 0.00 | 0.00 | 24 | 1017.3 |
| 20260503173050 | 15 | 267 | 1.6 | 16.1 | 0.00 | 0.00 | 0.00 | 24 | 1017.3 |
| 20260503171607 | 13 | 163 | 1.6 | 9.7 | 0.00 | 0.00 | 0.00 | 26 | 1017.3 |